Terminal Aerodrome Forecast
Issued by NWS Knoxville/Tri Cities, TN

Home | Current Version | Previous Version | Text Only | Print | Product List | Glossary On
Versions: 1 2 3 4 5 6 7 8 9 10 11 12 13 14 15 16 17 18 19 20 21 22 23 24 25 26 27 28 29 30 31 32 33 34 35 36
000
FTUS44 KMRX 202320
TAFTRI
TAF
KTRI 202320Z 2100/2124 23005KT P6SM BKN080
     FM210400 24005KT P6SM SCT040 SCT080
     FM210800 25005KT P6SM BKN020
     FM211400 27008KT P6SM BKN030
     FM211800 29010KT P6SM BKN040=

USA.gov is the U.S. government's official web portal to all federal, state and local government web resources and services.